Location: Unspecified
(50.7693°N, 0.0000°E)
Time: 08:01:34
(UTC+00:00)

SR - Pass Details

Date: 04 July 2019
Orbit: 580 x 876 km, 66.7° (Epoch: 20 July)

Event Time Altitude Azimuth Distance (km) Brightness Sun altitude
Rises 03:26:34 0° 275° (W) 2,828 ? -3.9°
Reaches altitude 10° 03:29:30 10° 296° (WNW) 1,959 ? -3.6°
Maximum altitude 03:32:20 17° 337° (NNW) 1,611 ? -3.3°
Drops below altitude 10° 03:35:17 10° 17° (NNE) 2,048 ? -2.9°
Sets 03:38:27 0° 38° (NE) 3,022 ? -2.6°
